EN

Hourly Weather Veselovka

Today, 1 October, Thursday

Time Temperature Precipitation Wind Pressure Humidity
00:00 +12°C° 0 mm 2 mps 749 mmHg 85%
01:00 +12°C° 0 mm 2 mps 749 mmHg 87%
02:00 +10°C° 0 mm 2 mps 750 mmHg 88%
03:00 +11°C° 0 mm 1 mps 750 mmHg 88%
04:00 +10°C° 0 mm 1 mps 750 mmHg 89%
05:00 +10°C° 0 mm 1 mps 750 mmHg 88%
06:00 +10°C° 0 mm 1 mps 750 mmHg 87%
07:00 +10°C° 0 mm 1 mps 750 mmHg 87%
08:00 +12°C° 0 mm 1 mps 750 mmHg 80%
09:00 +13°C° 0 mm 1 mps 750 mmHg 72%
10:00 +15°C° 0 mm 2 mps 750 mmHg 65%
11:00 +16°C° 0 mm 1 mps 750 mmHg 62%
12:00 +18°C° 0 mm 1 mps 749 mmHg 59%
13:00 +19°C° 0 mm 1 mps 749 mmHg 55%
14:00 +19°C° 0 mm 1 mps 749 mmHg 55%
15:00 +19°C° 0 mm 1 mps 749 mmHg 54%
16:00 +19°C° 0 mm 1 mps 749 mmHg 53%
17:00 +18°C° 0 mm 1 mps 749 mmHg 59%
18:00 +15°C° 0 mm 1 mps 749 mmHg 65%
19:00 +14°C° 0 mm 1 mps 748 mmHg 70%
20:00 +13°C° 0 mm 1 mps 749 mmHg 73%
21:00 +13°C° 0 mm 1 mps 749 mmHg 76%
22:00 +12°C° 0 mm 1 mps 749 mmHg 79%
23:00 +12°C° 0 mm 1 mps 749 mmHg 81%

Tomorrow, 2 October, Friday

Time Temperature Precipitation Wind Pressure Humidity
00:00 +11°C° 0 mm 1 mps 749 mmHg 83%
01:00 +11°C° 0 mm 1 mps 748 mmHg 85%
02:00 +10°C° 0 mm 0 mps 749 mmHg 85%
03:00 +9°C° 0 mm 0 mps 749 mmHg 86%
04:00 +9°C° 0 mm 0 mps 749 mmHg 86%
05:00 +9°C° 0 mm 0 mps 749 mmHg 85%
06:00 +9°C° 0 mm 0 mps 749 mmHg 85%
07:00 +9°C° 0 mm 0 mps 749 mmHg 84%
08:00 +10°C° 0 mm 0 mps 749 mmHg 77%
09:00 +12°C° 0 mm 0 mps 749 mmHg 70%
10:00 +15°C° 0 mm 1 mps 749 mmHg 63%
11:00 +14°C° 0 mm 0 mps 749 mmHg 61%
12:00 +15°C° 0 mm 0 mps 749 mmHg 58%
13:00 +16°C° 0 mm 0 mps 748 mmHg 55%
14:00 +16°C° 0 mm 0 mps 748 mmHg 54%
15:00 +17°C° 0 mm 0 mps 748 mmHg 53%
16:00 +17°C° 0 mm 0 mps 748 mmHg 53%
17:00 +15°C° 0 mm 0 mps 748 mmHg 58%
18:00 +14°C° 0 mm 0 mps 748 mmHg 63%
19:00 +14°C° 0 mm 1 mps 747 mmHg 68%
20:00 +13°C° 0 mm 0 mps 747 mmHg 70%
21:00 +12°C° 0 mm 0 mps 747 mmHg 71%
22:00 +11°C° 0 mm 0 mps 747 mmHg 73%
23:00 +11°C° 0 mm 0 mps 747 mmHg 75%

Day after tomorrow, 3 October, Saturday

Time Temperature Precipitation Wind Pressure Humidity
00:00 +11°C° 0 mm 0 mps 747 mmHg 77%
01:00 +10°C° 0 mm 0 mps 747 mmHg 78%
02:00 +10°C° 0 mm 0 mps 747 mmHg 80%
03:00 +9°C° 0 mm 0 mps 747 mmHg 81%
04:00 +10°C° 0 mm 1 mps 747 mmHg 82%
05:00 +9°C° 0 mm 0 mps 747 mmHg 84%
06:00 +10°C° 0 mm 1 mps 747 mmHg 85%
07:00 +10°C° 0 mm 1 mps 747 mmHg 85%
08:00 +11°C° 0 mm 1 mps 747 mmHg 78%
09:00 +13°C° 0 mm 1 mps 747 mmHg 71%
10:00 +15°C° 0 mm 1 mps 747 mmHg 64%
11:00 +15°C° 0 mm 2 mps 747 mmHg 61%
12:00 +16°C° 0 mm 2 mps 747 mmHg 57%
13:00 +17°C° 0 mm 2 mps 747 mmHg 54%
14:00 +17°C° 0 mm 2 mps 747 mmHg 54%
15:00 +17°C° 0 mm 3 mps 747 mmHg 53%
16:00 +17°C° 0 mm 3 mps 746 mmHg 53%
17:00 +16°C° 0 mm 3 mps 746 mmHg 59%
18:00 +13°C° 0 mm 3 mps 746 mmHg 65%
19:00 +13°C° 0 mm 2 mps 746 mmHg 71%
20:00 +12°C° 0 mm 2 mps 747 mmHg 73%
21:00 +12°C° 0 mm 2 mps 747 mmHg 76%
22:00 +10°C° 0 mm 2 mps 747 mmHg 78%
23:00 +10°C° 0 mm 2 mps 747 mmHg 81%

4 October, Sunday

Time Temperature Precipitation Wind Pressure Humidity
00:00 +9°C° 0 mm 2 mps 747 mmHg 84%
01:00 +9°C° 0 mm 2 mps 747 mmHg 88%
02:00 +9°C° 0 mm 2 mps 747 mmHg 89%
03:00 +8°C° 0 mm 2 mps 747 mmHg 91%
04:00 +8°C° 0 mm 2 mps 747 mmHg 92%
05:00 +8°C° 0 mm 2 mps 747 mmHg 92%
06:00 +7°C° 0 mm 2 mps 747 mmHg 93%
07:00 +7°C° 0 mm 2 mps 747 mmHg 93%
08:00 +9°C° 0 mm 3 mps 747 mmHg 85%
09:00 +10°C° 0 mm 4 mps 747 mmHg 76%
10:00 +12°C° 0 mm 4 mps 747 mmHg 67%
11:00 +12°C° 0 mm 4 mps 747 mmHg 63%
12:00 +12°C° 0 mm 4 mps 747 mmHg 59%
13:00 +13°C° 0 mm 3 mps 747 mmHg 54%
14:00 +13°C° 0 mm 3 mps 747 mmHg 53%
15:00 +13°C° 0 mm 3 mps 747 mmHg 52%
16:00 +12°C° 0 mm 3 mps 747 mmHg 50%
17:00 +11°C° 0 mm 3 mps 747 mmHg 55%
18:00 +10°C° 0 mm 3 mps 747 mmHg 59%
19:00 +9°C° 0 mm 3 mps 747 mmHg 64%
20:00 +8°C° 0 mm 3 mps 747 mmHg 66%
21:00 +7°C° 0 mm 3 mps 747 mmHg 69%
22:00 +7°C° 0 mm 3 mps 748 mmHg 72%
23:00 +7°C° 0 mm 3 mps 748 mmHg 76%

5 October, Monday

Time Temperature Precipitation Wind Pressure Humidity
00:00 +5°C° 0 mm 3 mps 748 mmHg 81%
01:00 +5°C° 0 mm 3 mps 748 mmHg 86%
02:00 +5°C° 0 mm 3 mps 748 mmHg 86%
03:00 +4°C° 0 mm 3 mps 748 mmHg 86%
04:00 +5°C° 0 mm 2 mps 748 mmHg 86%
05:00 +5°C° 0 mm 2 mps 748 mmHg 85%
06:00 +4°C° 0 mm 3 mps 748 mmHg 84%
07:00 +4°C° 0 mm 3 mps 749 mmHg 83%
08:00 +5°C° 0 mm 3 mps 749 mmHg 74%
09:00 +8°C° 0 mm 3 mps 749 mmHg 65%
10:00 +10°C° 0 mm 4 mps 749 mmHg 56%
11:00 +10°C° 0 mm 3 mps 749 mmHg 53%
12:00 +11°C° 0 mm 3 mps 749 mmHg 50%
13:00 +12°C° 0 mm 3 mps 749 mmHg 47%
14:00 +12°C° 0 mm 3 mps 749 mmHg 47%
15:00 +13°C° 0 mm 2 mps 748 mmHg 46%
16:00 +13°C° 0 mm 2 mps 748 mmHg 45%
17:00 +12°C° 0 mm 2 mps 748 mmHg 50%
18:00 +10°C° 0 mm 1 mps 748 mmHg 54%
19:00 +9°C° 0 mm 1 mps 748 mmHg 59%
20:00 +9°C° 0 mm 1 mps 748 mmHg 60%
21:00 +7°C° 0 mm 0 mps 748 mmHg 62%
22:00 +7°C° 0 mm 0 mps 748 mmHg 63%
23:00 +7°C° 0 mm 0 mps 748 mmHg 64%

6 October, Tuesday

Time Temperature Precipitation Wind Pressure Humidity
00:00 +7°C° 0 mm 1 mps 748 mmHg 64%
01:00 +7°C° 0 mm 1 mps 748 mmHg 64%
02:00 +7°C° 0 mm 1 mps 748 mmHg 64%
03:00 +6°C° 0 mm 1 mps 748 mmHg 64%
04:00 +5°C° 0 mm 2 mps 748 mmHg 65%
05:00 +5°C° 0 mm 2 mps 748 mmHg 63%
06:00 +5°C° 0 mm 2 mps 748 mmHg 62%
07:00 +5°C° 0 mm 2 mps 748 mmHg 61%
08:00 +6°C° 0 mm 2 mps 748 mmHg 56%
09:00 +8°C° 0 mm 3 mps 748 mmHg 51%
10:00 +9°C° 0 mm 3 mps 748 mmHg 46%
11:00 +11°C° 0 mm 3 mps 748 mmHg 44%
12:00 +12°C° 0 mm 3 mps 748 mmHg 43%
13:00 +13°C° 0 mm 3 mps 748 mmHg 41%
14:00 +13°C° 0 mm 3 mps 748 mmHg 42%
15:00 +14°C° 0 mm 3 mps 747 mmHg 43%
16:00 +14°C° 0 mm 3 mps 747 mmHg 44%
17:00 +12°C° 0 mm 3 mps 747 mmHg 49%
18:00 +11°C° 0 mm 3 mps 747 mmHg 54%
19:00 +10°C° 0 mm 2 mps 747 mmHg 58%
20:00 +9°C° 0 mm 2 mps 747 mmHg 59%
21:00 +9°C° 0 mm 2 mps 747 mmHg 60%
22:00 +9°C° 0 mm 2 mps 747 mmHg 61%
23:00 +8°C° 0 mm 3 mps 747 mmHg 61%
Show more

We Need Your Consent

Meteoprog and our Service Providers may store and access personal data such as cookies, device identifiers or other similar technologies on your device and process such data to personalise content and ads, as well as provide social media features and to analyse the traffic.

  • Store and/or access information on your device

    Cookies, device identifiers or other information can be stored or accessed on your device for the purposes indicated above.

  • Personalised ads and content, ad and content measurement, audience insights, and products development

    Ads and content can be personalised based on a profile. More data can be added to better personalise ads and content. Ad and content performance can be measured. Insights about the audience who saw the ads and content can be derived. Such data can be used to develop or improve user’s experience, systems and software.

By clicking ‘I Agree’ you will allow the use of indicated cookies, device identifiers, web beacons or other similar technologies. Your settings can be changed in the browser on your device.

For certain purposes, legitimate interests may be relied on, rather than consent. You can read more about this in our Privacy and Cookie Policy.